Date String (YYYY-MM-DD hh:mm:ss) UTC,Instrument flags,Ambient pressure (hPa),Sample flow (lpm),Bypass flow (lpm),Sample temperature (°C),Ambient temperature (°C),ASC tube jacket temperature (°C),LED temperature (°C),Box temperature (°C),Sample RH (%),Span deviation,Mass concentration (μg/m³),Mass concentration (μg/m³),Mass concentration (μg/m³)
DateTimeUTC,F1_M11,P_M11,Q1_M11,Q2_M11,T1_M11,T2_M11,T3_M11,T4_M11,T5_M11,U1_M11,ZSPAN_M11,X0_M11,X2_M11,X1_M11
2021-10-18 03:00:00,,0824.6,5.01,0.00,30.3,29.3,00.0,39.4,32.0,08.7,0000.4,0013.07,0004.41,0003.66
2021-10-18 03:01:00,,0824.7,4.99,0.00,30.3,29.2,00.0,39.4,32.0,08.7,0000.0,0011.93,0004.28,0003.57
2021-10-18 03:02:00,,0824.7,4.99,0.00,30.3,29.2,00.0,39.4,31.9,08.7,0000.0,0011.76,0004.23,0003.52
2021-10-18 03:03:00,,0824.7,5.01,0.00,30.3,27.6,00.0,39.4,31.5,08.7,0000.0,0011.23,0004.18,0003.45
2021-10-18 03:04:00,,0824.6,5.00,0.00,30.1,26.1,00.0,39.4,31.2,08.7,0000.0,0010.55,0004.12,0003.39
2021-10-18 03:05:00,,0824.6,5.01,0.00,29.9,26.1,00.0,39.3,31.1,08.7,0000.0,0010.52,0004.05,0003.34
2021-10-18 03:06:00,,0824.6,5.00,0.00,29.8,26.5,00.0,39.2,31.1,08.9,0000.0,0010.87,0004.00,0003.28
2021-10-18 03:07:00,,0824.6,5.01,0.00,29.8,26.9,00.0,39.2,31.2,08.9,0000.0,0009.75,0003.91,0003.22
2021-10-18 03:08:00,,0824.6,4.99,0.00,29.7,27.3,00.0,39.1,31.3,08.9,0000.0,0009.46,0003.82,0003.18
2021-10-18 03:09:00,,0824.6,5.00,0.00,29.7,27.6,00.0,39.1,31.3,09.0,0000.0,0009.16,0003.80,0003.16
2021-10-18 03:10:00,,0824.6,5.01,0.00,29.7,27.8,00.0,39.0,31.4,09.0,0000.0,0009.19,0003.78,0003.13
2021-10-18 03:11:00,,0824.6,5.00,0.00,29.7,28.0,00.0,39.0,31.4,08.9,0000.0,0009.42,0003.74,0003.09
2021-10-18 03:12:00,,0824.6,5.00,0.00,29.7,28.2,00.0,39.0,31.4,09.0,0000.0,0009.52,0003.73,0003.06
2021-10-18 03:13:00,,0824.7,5.00,0.00,29.7,28.3,00.0,39.0,31.4,09.0,0000.0,0009.52,0003.72,0003.02
2021-10-18 03:14:00,,0824.6,5.00,0.00,29.8,28.4,00.0,39.0,31.4,09.0,0000.0,0009.45,0003.69,0002.98
2021-10-18 03:15:00,,0824.6,5.01,0.00,29.8,28.4,00.0,39.0,31.4,08.9,0000.0,0009.71,0003.65,0002.96
2021-10-18 03:16:00,,0824.6,4.98,0.00,29.8,28.5,00.0,39.0,31.4,08.9,0000.0,0009.23,0003.61,0002.93
2021-10-18 03:17:00,,0824.6,5.00,0.00,29.8,28.5,00.0,39.0,31.5,08.9,0000.0,0008.81,0003.60,0002.89
2021-10-18 03:18:00,,0824.7,5.02,0.00,29.8,28.6,00.0,38.9,31.5,08.8,0000.0,0008.48,0003.60,0002.86
2021-10-18 03:19:00,,0824.7,4.99,0.00,29.8,28.6,00.0,38.9,31.5,08.8,0000.0,0008.54,0003.61,0002.85
2021-10-18 03:20:00,,0824.6,5.00,0.00,29.8,28.6,00.0,38.9,31.5,08.7,0000.0,0008.61,0003.60,0002.82
2021-10-18 03:21:00,,0824.7,5.01,0.00,29.8,28.6,00.0,38.9,31.5,08.7,0000.0,0008.45,0003.57,0002.79
2021-10-18 03:22:00,,0824.6,5.00,0.00,29.8,28.7,00.0,39.0,31.5,08.7,0000.0,0008.20,0003.56,0002.76
2021-10-18 03:23:00,,0824.7,4.99,0.00,29.8,28.7,00.0,39.0,31.5,08.6,0000.0,0008.14,0003.58,0002.72
2021-10-18 03:24:00,,0824.6,5.01,0.00,29.9,28.7,00.0,39.0,31.6,08.6,0000.0,0008.10,0003.55,0002.70
2021-10-18 03:25:00,,0824.7,5.00,0.00,29.9,28.7,00.0,39.0,31.5,08.6,0000.0,0008.11,0003.55,0002.66
2021-10-18 03:26:00,,0824.6,5.01,0.00,29.9,28.7,00.0,39.0,31.6,08.6,0000.0,0007.78,0003.54,0002.62
2021-10-18 03:27:00,,0824.6,4.99,0.00,29.9,28.8,00.0,39.0,31.6,08.5,0000.0,0007.71,0003.53,0002.59
2021-10-18 03:28:00,,0824.6,5.01,0.00,29.9,28.8,00.0,39.0,31.6,08.4,0000.0,0007.27,0003.50,0002.53
2021-10-18 03:29:00,,0824.7,5.00,0.00,29.9,28.8,00.0,39.0,31.6,08.4,0000.0,0007.08,0003.45,0002.46
2021-10-18 03:30:00,,0824.6,5.00,0.00,29.9,28.8,00.0,39.0,31.6,08.4,0000.0,0007.25,0003.38,0002.38
2021-10-18 03:31:00,,0824.6,5.00,0.00,29.9,28.8,00.0,39.0,31.7,08.5,0000.0,0007.03,0003.35,0002.33
2021-10-18 03:32:00,,0824.5,4.99,0.00,29.9,28.9,00.0,39.0,31.7,08.5,0000.0,0007.35,0003.32,0002.30
2021-10-18 03:33:00,,0824.6,5.01,0.00,29.9,28.9,00.0,39.0,31.6,08.5,0000.0,0007.26,0003.30,0002.27
2021-10-18 03:34:00,,0824.5,4.99,0.00,29.9,28.9,00.0,39.0,31.6,08.4,0000.0,0007.19,0003.25,0002.21
2021-10-18 03:35:00,,0824.7,5.00,0.00,29.9,28.9,00.0,39.0,31.6,08.4,0000.0,0007.52,0003.23,0002.16
2021-10-18 03:36:00,,0824.6,5.00,0.00,29.9,28.9,00.0,39.0,31.7,08.4,0000.0,0008.06,0003.22,0002.12
2021-10-18 03:37:00,,0824.5,5.01,0.00,30.0,28.9,00.0,39.0,31.7,08.4,0000.0,0008.49,0003.19,0002.08
2021-10-18 03:38:00,,0824.6,4.99,0.00,30.0,28.9,00.0,39.1,31.7,08.3,0000.0,0008.63,0003.14,0002.03
2021-10-18 03:39:00,,0824.6,4.99,0.00,30.0,28.9,00.0,39.1,31.7,08.3,0000.0,0008.55,0003.08,0002.01
2021-10-18 03:40:00,,0824.7,5.01,0.00,30.0,28.9,00.0,39.1,31.7,08.3,0000.0,0008.51,0003.02,0001.99
2021-10-18 03:41:00,,0824.5,5.01,0.00,30.0,29.0,00.0,39.1,31.7,08.3,0000.0,0008.34,0003.01,0001.99
2021-10-18 03:42:00,,0824.5,4.99,0.00,30.0,29.0,00.0,39.1,31.8,08.3,0000.0,0008.43,0003.00,0001.95
2021-10-18 03:43:00,,0824.6,5.02,0.00,30.0,29.0,00.0,39.1,31.7,08.2,0000.0,0008.19,0002.92,0001.89
2021-10-18 03:44:00,,0824.5,4.99,0.00,30.0,29.0,00.0,39.1,31.8,08.2,0000.0,0008.50,0002.87,0001.84
2021-10-18 03:45:00,,0824.6,4.99,0.00,30.0,29.0,00.0,39.1,31.7,08.2,0000.0,0008.47,0002.77,0001.81
2021-10-18 03:46:00,,0824.5,5.00,0.00,30.0,29.0,00.0,39.1,31.8,08.2,0000.0,0008.82,0002.74,0001.79
2021-10-18 03:47:00,,0824.6,4.98,0.00,30.0,29.0,00.0,39.1,31.8,08.2,0000.0,0008.49,0002.68,0001.75
2021-10-18 03:48:00,,0824.5,5.01,0.00,30.1,29.0,00.0,39.1,31.7,08.1,0000.0,0007.96,0002.66,0001.73
2021-10-18 03:49:00,,0824.6,5.01,0.00,30.1,29.0,00.0,39.1,31.7,08.1,0000.0,0007.93,0002.61,0001.72
2021-10-18 03:50:00,,0824.4,5.00,0.00,30.1,29.0,00.0,39.1,31.8,08.1,0000.0,0008.32,0002.61,0001.70
2021-10-18 03:51:00,,0824.4,5.01,0.00,30.1,29.0,00.0,39.1,31.7,08.1,0000.0,0008.85,0002.62,0001.69
2021-10-18 03:52:00,,0824.4,5.00,0.00,30.1,29.0,00.0,39.2,31.8,08.1,0000.0,0008.83,0002.57,0001.67
2021-10-18 03:53:00,,0824.5,4.99,0.00,30.1,29.0,00.0,39.2,31.8,08.1,0000.0,0008.69,0002.52,0001.65
2021-10-18 03:54:00,,0824.5,5.01,0.00,30.1,29.0,00.0,39.2,31.7,08.1,0000.0,0008.59,0002.54,0001.64
2021-10-18 03:55:00,,0824.5,5.01,0.00,30.1,29.0,00.0,39.2,31.7,08.1,0000.0,0008.26,0002.56,0001.63
2021-10-18 03:56:00,,0824.5,4.99,0.00,30.1,29.0,00.0,39.2,31.8,08.1,0000.0,0008.99,0002.60,0001.63
2021-10-18 03:57:00,,0824.5,4.99,0.00,30.1,29.1,00.0,39.2,31.8,08.1,0000.0,0008.23,0002.54,0001.61
2021-10-18 03:58:00,,0824.5,5.00,0.00,30.1,29.1,00.0,39.2,31.8,08.1,0000.0,0008.02,0002.54,0001.61
2021-10-18 03:59:00,,0824.4,4.99,0.00,30.1,29.1,00.0,39.2,31.7,08.1,0000.0,0008.07,0002.56,0001.59
